Cloverdale, Indiana, United States (46120)
Lat: 39.51N, Lon: 86.79W
Wx Zone: INZ045
Local Info
Past Weather Observations for Saturday, August 30, 2014

NOTE: This archive is for the closest National Weather Service station to Cloverdale. Information may differ from the station used for current weather conditions.

Click here for Long-term Archive

Time Weather Temperature Dewpoint Humidity Pressure Winds Precip Visibility
23:53
Mostly Cloudy
70°F / 21°C 66°F / 19°C 88% 30.04 in
(1017 mb)
S 3.5 mph
(S 6 kph)
- 10SM
23:07
Partly Cloudy
70°F / 21°C 66°F / 19°C 88% 30.04 in
(1017 mb)
SSE 6.9 mph
(SSE 11 kph)
- 10SM
22:53
Partly Cloudy
70°F / 21°C 66°F / 19°C 88% 30.04 in
(1017 mb)
S 5.8 mph
(S 9 kph)
- 10SM
21:53
Clear
72°F / 22°C 68°F / 20°C 88% 30.04 in
(1017 mb)
S 6.9 mph
(S 11 kph)
- 10SM
20:53
Clear
72°F / 22°C 68°F / 20°C 88% 30.04 in
(1017 mb)
S 6.9 mph
(S 11 kph)
- 10SM
19:53
Partly Cloudy
73°F / 23°C 68°F / 20°C 83% 30.01 in
(1016 mb)
S 10.4 mph
(S 17 kph)
- 10SM
19:51
Partly Cloudy
73°F / 23°C 68°F / 20°C 83% 30.01 in
(1016 mb)
S 9.2 mph
(S 15 kph)
- 10SM
18:53
Overcast
73°F / 23°C 70°F / 21°C 89% 30.01 in
(1016 mb)
S 10.4 mph
(S 17 kph)
- 7SM
18:10
Mostly Cloudy
75°F / 24°C 72°F / 22°C 89% 30.01 in
(1016 mb)
S 9.2 mph
(S 15 kph)
- 7SM
17:53
Partly Cloudy
75°F / 24°C 70°F / 21°C 83% 30.01 in
(1016 mb)
S 11.5 mph
(S 19 kph)
- 7SM
16:53
Partly Cloudy
75°F / 24°C 70°F / 21°C 83% 30.01 in
(1016 mb)
SSE 11.5 mph
(SSE 19 kph)
- 8SM
16:48
Mostly Cloudy
75°F / 24°C 70°F / 21°C 83% 30.01 in
(1016 mb)
SSE 8.1 mph
(SSE 13 kph)
- 8SM
16:40
Mostly Cloudy
75°F / 24°C 72°F / 22°C 89% 30.01 in
(1016 mb)
SSE 10.4 mph
(SSE 17 kph)
- 8SM
16:18
Mostly Cloudy
75°F / 24°C 72°F / 22°C 89% 30.01 in
(1016 mb)
S 12.7 mph
(S 20 kph)
- 7SM
15:53
Partly Cloudy
77°F / 25°C 72°F / 22°C 83% 30.01 in
(1016 mb)
S 9.2 mph
(S 15 kph)
- 8SM
14:53
Partly Cloudy
77°F / 25°C 70°F / 21°C 79% 30.01 in
(1016 mb)
SW 9.2 mph
(SW 15 kph)
- 10SM
13:53
Clear
77°F / 25°C 72°F / 22°C 83% 30.04 in
(1017 mb)
SW 8.1 mph
(SW 13 kph)
- 10SM
12:53
Partly Cloudy
75°F / 24°C 72°F / 22°C 89% 30.04 in
(1017 mb)
SSE 8.1 mph
(SSE 13 kph)
- 10SM
11:53
Mostly Cloudy
73°F / 23°C 72°F / 22°C 94% 30.06 in
(1018 mb)
SW 10.4 mph
(SW 17 kph)
0.01 in
(0.25 mm)
10SM
11:01
Overcast
Light Rain
72°F / 22°C 70°F / 21°C 94% 30.06 in
(1018 mb)
SSW 9.2 mph
(SSW 15 kph)
0.01 in
(0.25 mm)
6SM
10:53
Overcast
Thunder Storms
72°F / 22°C 68°F / 20°C 88% 30.06 in
(1018 mb)
SSW 10.4 mph
(SSW 17 kph)
0.11 in
(2.79 mm)
4SM
10:44
Overcast
Thunder Storms
72°F / 22°C 68°F / 20°C 88% 30.06 in
(1018 mb)
SW 11.5 mph
(SW 19 kph)
0.10 in
(2.54 mm)
3SM
10:37
Overcast
Heavy Rain
72°F / 22°C 70°F / 21°C 94% 30.06 in
(1018 mb)
SW 13.8 mph
(SW 22 kph)
0.07 in
(1.78 mm)
1 3/4SM
09:53
Partly Cloudy
73°F / 23°C 70°F / 21°C 89% 30.04 in
(1017 mb)
S 9.2 mph
(S 15 kph)
0.00 in
(0.00 mm)
9SM
09:02
Mostly Cloudy
Light Rain
72°F / 22°C 70°F / 21°C 94% 30.04 in
(1017 mb)
S 8.1 mph
(S 13 kph)
0.00 in
(0.00 mm)
8SM
08:53
Overcast
Rain
72°F / 22°C 68°F / 20°C 88% 30.04 in
(1017 mb)
S 6.9 mph
(S 11 kph)
0.06 in
(1.52 mm)
2SM
07:53
Overcast
Light Rain
72°F / 22°C 68°F / 20°C 88% 30.04 in
(1017 mb)
S 4.6 mph
(S 7 kph)
0.04 in
(1.02 mm)
6SM
07:00
Overcast
Rain
72°F / 22°C 66°F / 19°C 83% 30.04 in
(1017 mb)
SW 3.5 mph
(SW 6 kph)
0.02 in
(0.51 mm)
3SM
06:53
Mostly Cloudy
Thunder Storms
72°F / 22°C 66°F / 19°C 83% 30.04 in
(1017 mb)
W 3.5 mph
(W 6 kph)
0.01 in
(0.25 mm)
5SM
06:40
Overcast
Thunder Storms
70°F / 21°C 66°F / 19°C 88% 30.04 in
(1017 mb)
SSW 3.5 mph
(SSW 6 kph)
- 8SM
05:53
Overcast
72°F / 22°C 66°F / 19°C 83% 30.01 in
(1016 mb)
S 4.6 mph
(S 7 kph)
0.01 in
(0.25 mm)
10SM
04:53
Overcast
73°F / 23°C 64°F / 18°C 74% 30.01 in
(1016 mb)
S 6.9 mph
(S 11 kph)
- 10SM
03:53
Partly Cloudy
73°F / 23°C 63°F / 17°C 69% 30.01 in
(1016 mb)
SSE 8.1 mph
(SSE 13 kph)
- 10SM
02:53
Mostly Cloudy
72°F / 22°C 64°F / 18°C 78% 30.01 in
(1016 mb)
SSE 8.1 mph
(SSE 13 kph)
- 10SM
01:53
Clear
72°F / 22°C 64°F / 18°C 78% 30.01 in
(1016 mb)
S 5.8 mph
(S 9 kph)
- 10SM
00:53
Clear
73°F / 23°C 64°F / 18°C 74% 30.01 in
(1016 mb)
SSE 8.1 mph
(SSE 13 kph)
- 10SM
Time Weather Temperature Dewpoint Humidity Pressure Winds Precip Visibility


Weather for websites

WeatherForYou.com, LLC is not responsible for any damages or problems caused by this service. Current weather conditions are obtained from the closest station including government and personal stations which may have varying degrees of accuracy. Weather forecasts are derived from the NOAA NDFD. Like all things, this site belongs to Jesus Christ... He just trusts me to maintain it. If you have any questions or comments email webmaster@weatherforyou.com

Copyright © 2014, WeatherForYou.com LLC. All rights reserved.